Ketchikan, AK

5:15 PM AKST on February 20, 2019 (GMT -0900)
Ketchikan International

Weather History for PAKT - January, 2019

Change the Weather History Date:

Monday, January 21, 2019

  Actual Average Record
Temperature  
Mean Temperature 38 °F -  
Max Temperature 42 °F 39 °F 57 °F (1981)
Min Temperature 34 °F 29 °F 7 °F (1982)
Degree Days  
Heating Degree Days 27    
Moisture  
Dew Point 37 °F    
Average Humidity 89    
Maximum Humidity 93    
Minimum Humidity 76    
Precipitation  
Precipitation 0.64 in - - ()
Sea Level Pressure  
Sea Level Pressure 29.91 in    
Wind  
Wind Speed 12 mph (SE)    
Max Wind Speed 24 mph    
Max Gust Speed 36 mph    
Visibility 8 miles    
Events Rain , Snow    
Averages and records for this station are not official NWS values.
T = Trace of Precipitation, MM = Missing Value Source: NWS Daily Summary

Daily Weather History Graph

Daily Weather History Graph

Search for Another Location

Airport or City:

Astronomy

Jan. 21, 2019 Rise Set
Actual Time 7:56 AM AKST 3:59 PM AKST
Civil Twilight 7:14 AM AKST 4:42 PM AKST
Nautical Twilight 6:28 AM AKST 5:28 PM AKST
Astronomical Twilight 5:45 AM AKST 6:11 PM AKST
Moon 4:58 PM AKST 8:28 AM AKST
Length of Visible Light 9h 27m
Length of Day
8h 03m
Full, 99% of the Moon is Illuminated
Jan 21
Full
Jan 27
Last Quarter
Feb 4
New
Feb 12
First Quarter
Feb 19
Full

Hourly Weather History & Observations

Time (AKST) Temp. Windchill Dew Point Humidity Pressure Visibility Wind Dir Wind Speed Gust Speed Precip Events Conditions
12:43 AM 42.1 °F 36.6 °F 39.9 °F 92% 30.01 in 10.0 mi SE 9.2 mph - 0.00 in Rain Light Rain
12:53 AM 42.1 °F 36.6 °F 39.0 °F 89% 30.01 in 10.0 mi SE 9.2 mph - 0.00 in   Overcast
1:06 AM 42.1 °F 36.6 °F 39.0 °F 89% 30.02 in 10.0 mi SE 9.2 mph - 0.01 in   Overcast
1:46 AM 42.1 °F 36.1 °F 39.0 °F 89% 30.02 in 10.0 mi SE 10.4 mph - 0.01 in Rain Light Rain
1:53 AM 42.1 °F 36.6 °F 39.0 °F 89% 30.03 in 10.0 mi SE 9.2 mph - 0.01 in   Overcast
2:23 AM 42.1 °F 36.6 °F 37.9 °F 85% 30.03 in 10.0 mi SSE 9.2 mph - 0.00 in   Overcast
2:33 AM 42.1 °F 37.7 °F 37.9 °F 85% 30.03 in 10.0 mi South 6.9 mph - 0.00 in   Overcast
2:53 AM 41.0 °F 35.2 °F 39.0 °F 93% 30.04 in 4.0 mi SE 9.2 mph - 0.01 in Rain Light Rain
3:10 AM 42.1 °F 36.1 °F 37.9 °F 85% 30.03 in 6.0 mi SE 10.4 mph - 0.01 in Rain Light Rain
3:39 AM 42.1 °F 36.6 °F 39.0 °F 89% 30.04 in 7.0 mi SE 9.2 mph - 0.02 in Rain Light Rain
3:53 AM 41.0 °F 35.2 °F 39.0 °F 93% 30.04 in 7.0 mi SE 9.2 mph - 0.02 in Rain Light Rain
4:46 AM 41.0 °F 33.9 °F 39.0 °F 93% 30.02 in 10.0 mi SE 12.7 mph - 0.01 in   Overcast
4:53 AM 41.0 °F 34.7 °F 37.9 °F 89% 30.03 in 10.0 mi SE 10.4 mph - 0.01 in   Overcast
5:02 AM 41.0 °F 34.7 °F 37.9 °F 89% 30.03 in 10.0 mi SE 10.4 mph - N/A   Overcast
5:35 AM 41.0 °F 35.2 °F 39.2 °F 93% 30.02 in 10.0 mi SE 9.2 mph - N/A   Overcast
5:53 AM 41.0 °F 33.9 °F 37.9 °F 89% 30.03 in 10.0 mi SE 12.7 mph - N/A   Overcast
6:11 AM 41.0 °F 33.9 °F 39.2 °F 93% 30.03 in 10.0 mi SE 12.7 mph - N/A Rain Light Rain
6:53 AM 42.8 °F 38.6 °F 39.2 °F 87% 30.04 in 5.0 mi SSE 6.9 mph - N/A Rain Light Rain
7:53 AM 42.8 °F 35.1 °F 39.2 °F 87% 30.03 in 10.0 mi SE 16.1 mph - N/A   Overcast
8:53 AM 42.8 °F 35.8 °F 39.2 °F 87% 30.02 in 10.0 mi SE 13.8 mph - N/A   Overcast
9:53 AM 42.8 °F 35.1 °F 39.2 °F 87% 30.02 in 10.0 mi SE 16.1 mph - N/A   Overcast
10:53 AM 42.8 °F 34.5 °F 39.2 °F 87% 30.01 in 8.0 mi SE 18.4 mph 25.3 mph N/A Rain Light Rain
11:53 AM 42.8 °F 35.8 °F 39.2 °F 87% 29.99 in 10.0 mi SE 13.8 mph - N/A   Overcast
12:53 PM 42.8 °F 34.3 °F 37.4 °F 81% 29.97 in 10.0 mi SE 19.6 mph 26.5 mph N/A   Overcast
1:53 PM 42.8 °F 34.0 °F 37.4 °F 81% 29.94 in 10.0 mi SE 20.7 mph 31.1 mph N/A   Overcast
2:53 PM 41.0 °F 33.1 °F 37.4 °F 87% 29.91 in 10.0 mi SE 15.0 mph 23.0 mph N/A   Overcast
3:53 PM 42.8 °F 34.0 °F 35.6 °F 76% 29.87 in 10.0 mi SE 20.7 mph 32.2 mph N/A Rain Light Rain
4:53 PM 41.0 °F 32.2 °F 35.6 °F 81% 29.83 in 7.0 mi SE 18.4 mph 31.1 mph N/A Rain Light Rain
5:53 PM 39.2 °F 28.5 °F 35.6 °F 87% 29.78 in 4.0 mi SE 24.2 mph 35.7 mph N/A Rain Light Rain
6:53 PM 37.4 °F 27.8 °F 35.6 °F 93% 29.71 in 5.0 mi SSE 17.3 mph 28.8 mph N/A Rain Light Rain
7:53 PM 37.4 °F 26.9 °F 35.6 °F 93% 29.65 in 6.0 mi SE 20.7 mph 28.8 mph N/A Rain Light Rain
8:53 PM 36.0 °F 26.3 °F 34.0 °F 93% 29.64 in 6.0 mi SSE 16.1 mph 26.5 mph 0.11 in Rain Light Rain
9:53 PM 34.0 °F 23.8 °F 32.0 °F 92% 29.63 in 3.0 mi SSE 16.1 mph 26.5 mph 0.13 in Snow Light Snow
10:53 PM 35.1 °F 25.2 °F 33.1 °F 92% 29.64 in 3.0 mi SSE 16.1 mph 21.9 mph 0.12 in Rain Rain
11:01 PM 35.1 °F 25.5 °F 33.1 °F 92% 29.63 in 2.5 mi SSE 15.0 mph 25.3 mph 0.04 in Rain Rain
11:31 PM 36.0 °F 25.0 °F 34.0 °F 93% 29.64 in 2.5 mi SE 20.7 mph 27.6 mph 0.15 in Rain Rain
11:44 PM 37.0 °F 27.4 °F 35.1 °F 93% 29.63 in 2.5 mi SE 17.3 mph 27.6 mph 0.19 in Rain Rain
11:53 PM 37.9 °F 28.2 °F 35.1 °F 89% 29.64 in 2.5 mi SE 18.4 mph 33.4 mph 0.23 in Rain Rain